Other Public Products
Issued by NWS Charleston, SC

Current Version | Previous Version | Graphics & Text | Print | Product List | Glossary On
Versions: 1 2 3 4 5 6 7 8 9 10 11 12 13 14 15 16 17 18 19 20 21 22 23 24 25 26 27 28 29 30 31 32 33 34 35 36 37 38 39 40 41 42 43 44 45 46 47 48 49 50
559
FPUS82 KCHS 232312
OPUCHS

TEST...KCHS/KSAV Gateway Observations...TEST
National Weather Service Charleston SC
700 PM EDT SUN JUL 23 2017

NOTE: "fair" indicates few or no clouds below 12,000 feet with no
significant weather and/or obstructions to visibility.

SCZ050-WAZ558-NCZ071-TXZ119-213-PAZ071-DCZ001-FLZ074-172-MI076-
NYZ176-178-MAZ016-IL014-TNZ027-NJZ106-GAZ044-MD014-240000-

...Gateway Observations for Charleston International...

CITY           SKY/WX    TMP DP  RH WIND       PRES   REMARKS
Chas Airport   PTSUNNY   83  74  74 SW9       29.91R
Seattle        MOSUNNY   75  57  53 NW12      30.05F
Charlotte      CLOUDY    75  69  81 S9        29.88F
Dallas DFW     PTSUNNY   99  72  41 S15G24    29.78F HX 108
Dallas Love    FAIR      95  70  44 S12       29.80S HX 101
Philladelphia  LGT RAIN  78  71  79 SE13      29.79R
Wash National  LGT RAIN  74  73  97 E10       29.77F FOG
Baltimore      PTSUNNY   76  75  97 W3        29.76S
Miami          PTSUNNY   87  74  64 SE8       30.01F HX  95
Detroit        PTSUNNY   83  65  54 VRB5      29.73F
Newark         PTSUNNY   76  67  73 SE7       29.83R
Laguardia      PTSUNNY   78  67  68 SE10      29.83R
J F K          PTSUNNY   75  69  81 E14       29.85R
Boston Logan   PTSUNNY   66  53  63 E10       29.91S
Ft. Lauderdale CLOUDY    85  75  72 SE13      29.99F HX  93
Chicago O`Hare PTSUNNY   71  66  84 W7        29.80R
Chicago Midway LGT RAIN  73  67  81 W5        29.79R
Houston Bush   PTSUNNY   92  74  55 S5        29.86F HX 101
Houston Hobby  PTSUNNY   92  73  53 S13       29.87S HX 100
Nashville      PTSUNNY   90  74  59 W14       29.82F HX  99
Atlanta        PTSUNNY   88  73  61 W14       29.90R HX  95

$$

GAZ044-118-TXZ119-213-NCZ071-DCZ001-MDZ014-506-PAZ021-071-NJZ106-
NYZ176-178-MAZ106-OHZ011-021-055-MIZ076-KYZ091-ILZ014-INZ047-
MNZ060-ONZ431-240000-

...Gateway Observations for Savannah International...

CITY           SKY/WX    TMP DP  RH WIND       PRES   REMARKS
Savannah Arpt  NOT AVBL
Atlanta        PTSUNNY   88  73  61 W14       29.90R HX  95
Charlotte      CLOUDY    75  69  81 S9        29.88F
Dallas DFW     PTSUNNY   99  72  41 S15G24    29.78F HX 108
Houston Bush   PTSUNNY   92  74  55 S5        29.86F HX 101
Wash National  LGT RAIN  74  73  97 E10       29.77F FOG
Wash Dulles    PTSUNNY   80  69  69 SE6       29.74F
Baltimore      PTSUNNY   76  75  97 W3        29.76S
Philadelphia   LGT RAIN  78  71  79 SE13      29.79R
Newark         PTSUNNY   76  67  73 SE7       29.83R
Laguardia      PTSUNNY   78  67  68 SE10      29.83R
J F K          PTSUNNY   75  69  81 E14       29.85R
Boston         PTSUNNY   66  53  63 E10       29.91S
Pittsburg      PTSUNNY   78  71  79 SW6       29.76S
Akron          LGT RAIN  77  70  79 N6        29.76R
Cleveland      PTSUNNY   82  66  58 NW7       29.76S
Cincinnati     LGT RAIN  82  75  79 W10       29.80F
Columbus       FAIR      78  73  85 SW10      29.77S
Detroit        PTSUNNY   83  65  54 VRB5      29.73F
Chicago O`Hare PTSUNNY   71  66  84 W7        29.80R
Minneapolis    FAIR      75  57  53 NE16G25   29.96R
Indianapolis   FAIR      81  71  71 SW7       29.81F
Toronto Canada PTSUNNY   73  61  64 E8G23     29.75F

$$




USA.gov is the U.S. government's official web portal to all federal, state and local government web resources and services.